Regional Weather Roundup
Issued by NWS Wakefield, VA

Home | Current Version | Previous Version | Text Only | Print | Product List | Glossary Off
Versions: 1 2 3 4 5 6 7 8 9 10 11 12 13 14 15 16 17 18 19 20 21 22 23 24 25 26 27 28 29 30 31 32 33 34 35 36 37 38 39 40 41 42 43 44 45 46 47

000
ASUS41 KAKQ 030315
RWRAKQ

REGIONAL WEATHER ROUNDUP
NATIONAL WEATHER SERVICE WAKEFIELD VA
1100 PM EDT WED SEP 02 2015

Note: "fair" indicates few or no clouds below 12,000 feet with no
significant weather and/or obstructions to visibility. * = Denotes
station may not report precipitation (e.g., rain,snow,etc.),
thunder or fog.

VAZ042-051-052>054-056-030400-
NORTHERN VIRGINIA

CITY           SKY/WX    TMP DP  RH WIND       PRES   REMARKS
WASH NATIONAL  CLEAR     78  70  76 SW3       29.95R
DULLES         CLEAR     74  68  81 W3        29.96R
FORT BELVOIR   CLEAR     71  69  93 SE2       29.96R FOG
QUANTICO       CLEAR     74  66  76 W7        29.96R
FREDERICKSBRG* PTCLDY    76  69  79 CALM      29.96R
STAFFORD*      PTCLDY    70  65  84 NW5       30.00S
WARRENTON      CLEAR     70  68  91 CALM      29.97S
CULPEPER*      CLEAR     68  65  90 CALM      29.98S
MANASSAS*      PTCLDY    72  70  94 CALM      29.96R
LEESBURG*      CLEAR     73  72  94 W3        29.97S
WINCHESTER     CLEAR     72  66  83 SW6       29.99S
FRONT ROYAL*   FAIR      66  64  94 S7        29.99S
LURAY*         MOCLDY    63  63 100 CALM      30.03R FOG
$$

VAZ048-049-060>072-079>083-030400-
CENTRAL AND SOUTH CENTRAL VIRGINIA

CITY           SKY/WX    TMP DP  RH WIND       PRES   REMARKS
RICHMOND       MOCLDY    71  69  93 S7        29.97R
CHESTERFIELD*  FAIR      72  59  64 W5        30.00R
PETERSBURG*    MOCLDY    69  69 100 CALM      29.98R
HANOVER        PTCLDY    71  68  90 W6        29.99R
TAPPAHANNOCK*  PTCLDY    70  66  87 CALM      29.96S
QUINTON*       FAIR      71  70  99 SW5       29.96R FOG
CHARLOTTSVILLE CLEAR     69  65  86 CALM      29.99S
GORDONSVILLE*  FAIR      71  65  81 CALM      29.97F
ORANGE*        CLEAR     70  64  83 SW3       29.99S
LOUISA*        CLEAR     68  66  94 CALM      29.97S
BUMPASS*       FAIR      68  68  99 CALM      29.97S
FARMVILLE*     CLEAR     69  69 100 W3        29.99S FOG
CREWE*         FAIR     N/A N/A N/A NW5       30.00R
FORT PICKETT*  FAIR      68  67  98 N7        29.99R
CHASE CITY*    FAIR      71  71 100 CALM      30.00F
CLARKSVILLE*   FAIR      70  70 100 CALM      29.99S
SOUTH HILL*    MOCLDY    68  68  99 CALM      30.04F
LAWRENCEVILLE* FAIR      70  70 100 SW5       29.98S
EMPORIA*       CLOUDY    70  70 100 CALM      29.99R FOG
$$

VAZ088>098-030400-
SOUTHEAST VIRGINIA

CITY           SKY/WX    TMP DP  RH WIND       PRES   REMARKS
NORFOLK        CLOUDY    73  68  84 VRB5      29.97R
VIRGINIA BEACH CLOUDY    75  67  76 W6        29.96R
NORFOLK NAVAL  CLOUDY    74  70  87 SW6       29.97S
WEST POINT*    CLOUDY    76  71  85 CALM      29.96R
SALUDA*        FAIR      74  72  94 CALM      29.95R
NEWPORT NEWS   CLOUDY    73  70  90 SW5       29.95F
LANGLEY AFB    CLOUDY    73  70  90 W5        29.95F
FORT EUSTIS    CLOUDY    74  74 100 SW6       29.94F
WILLIAMSBURG*  CLOUDY    75  73  94 SW3       29.96F
HR EXEC AP*      N/A     72  68  88 CALM      29.98F
FRANKLIN*      LGT RAIN  71  70  97 S5        29.98S
WAKEFIELD      CLOUDY    74  68  81 CALM      29.96F
$$

VAZ020-022-025-037-045-030400-
WEST CENTRAL AND SOUTHWEST VIRGINIA

CITY           SKY/WX    TMP DP  RH WIND       PRES   REMARKS
STAUNTON*      CLEAR     69  65  89 CALM      30.06R
WAYNESBORO*    FAIR      67  65  93 CALM      30.05S
HOT SPRINGS VA CLEAR     67  58  72 NW9       30.16F
LYNCHBURG      CLEAR     67  62  84 SW3       30.04S
DANVILLE       CLEAR     69  65  86 N3        30.02R
SOUTH BOSTON*  FAIR      68  66  94 CALM      30.00S
MARTINSVILLE   CLEAR     70  70 100 CALM      30.06R
ROANOKE        CLEAR     70  64  81 W3        30.06S
BLACKSBURG     CLEAR     69  65  89 CALM      30.13S
DUBLIN*        CLOUDY    72  65  78 CALM      30.12S
MARION*        CLEAR     66  64  92 CALM      30.16S
HILLSVILLE*    CLEAR     71  62  72 NW5       30.12S
RICHLANDS*     FAIR      71  32  23 CALM      30.15S
WISE*          PTCLDY    72  59  64 CALM      30.17S
ABINGDON*      CLEAR     70  62  76 CALM      30.11S
$$

MDZ021>025-VAZ099-100-030400-
SOUTHERN MARYLAND AND THE DELMARVA PENINSULA

CITY           SKY/WX    TMP DP  RH WIND       PRES   REMARKS
PATUXENT RIVER MOCLDY    75  68  78 W8        29.94R
BAY BRIDGE APT   N/A     79  73  83 W6        29.93R
LEONARDTOWN    NOT AVBL
DOVER          CLEAR     73  71  95 S1        29.90S
GEORGETOWN     CLEAR     74  70  87 SW5       29.93S
EASTON         NOT AVBL
CAMBRIDGE      CLEAR     77  70  78 CALM      29.92S
SALISBURY      PTCLDY    74  73  97 CALM      29.93R FOG
OCEAN CITY     MOCLDY    73  69  87 CALM      29.92S
WALLOPS ISLAND CLEAR     77  75  93 W7        29.94R
ACCOMACK*      MOCLDY   N/A N/A N/A W7        29.94S
$$

NCZ012>017-030>032-030400-
NORTH CENTRAL AND EASTERN NORTH CAROLINA

CITY           SKY/WX    TMP DP  RH WIND       PRES   REMARKS
ROANOKE RAPIDS LGT RAIN  70  68  94 S5        29.98F
RALEIGH        MOCLDY    75  67  76 NE9       30.00R
ELIZABETH CITY LGT RAIN  72  69  90 SW7       29.97R
AHOSKIE*       HVY RAIN  69  68  96 CALM      30.00F
EDENTON*       LGT RAIN  72  65  79 W5        29.96F
CURRITUCK*     CLOUDY    72  69  90 SW6       29.97R
KILL DEVIL HLS CLOUDY    76  71  84 SW5       29.95S HAZE
MANTEO         CLOUDY    78  74  87 W5        29.96S
CAPE HATTERAS  PTCLDY    78  73  84 SW6       29.96F
TARBORO*       HVY RAIN  70  68  93 E6        30.05R
GOLDSBORO      MOCLDY    78  73  82 S3        29.95
WASHINGTON     PTCLDY    75  68  78 E6        29.98F
GREENVILLE     LGT RAIN  75  68  78 N28G35    30.03R
NEW BERN       PTCLDY    77  73  87 CALM      29.98R
WILMINGTON     PTCLDY    79  74  84 SW6       29.98R
$$

VAZ048-030400-
ELSEWHERE

CITY           SKY/WX    TMP DP  RH WIND       PRES   REMARKS
HARRISBURG PA  PTCLDY    76  66  71 NW6       29.93S
BALTIMORE      PTCLDY    73  66  78 W5        29.93S
ANNAPOLIS      CLEAR     77  72  84 CALM      29.93R
ANDREWS AFB    CLEAR     76  70  81 SW8       29.94R
PHILADELPHIA   CLEAR     79  68  69 SW7       29.91S
HENDERSON NC   PTCLDY    71  67  88 E3        30.00R
GREENSBORO     CLOUDY    79  66  64 W8        30.03R
ROCKY MOUNT    TSTM      72  70  93 NE9       30.01R FOG
$$

VAZ100-030400-
MARINE

STATION/POSITION TIME  TEMP    WIND        PRES    WAVE   SWELL
                       AIR SEA DIR/SP/G            HT/PER HT/PER
                 (UTC) (F)     (DEG/KT/KT) (MB)    (FT/S) (FT/S)
BRANDYWINE LGT   0200   78 77  210/ 10/ 11 1013.4F
CAPE MAY NJ      0200   77 80  180/  5/  8 1012.9F
LEWES DE         0200   78 77  190/  4/  6 1013.0F
15NM E FENWICK I 0250   80 80  210/  6/  8 1013.2F   1/13   2/13
OCEAN-CITY-INLET 0200   79 79  190/  1/  1 1012.3F
GOOSES REEF MD   0300   80 80  280/ 12/ 16 1014.3R
COVE POINT MD    0200   78     290/  8/ 11 1014.0F
SOLOMONS ISLAND  0200      81                N/A
BISHOPS HEAD MD  0200   81 83  260/ 11/ 11 1012.5F
PINEY POINT MD   0205          300/  8/  9   N/A
POTOMAC MD       0300   78 80  290/ 12/ 14 1012.7R   1/ 2
CAMBRIDGE MD     0200   80 81  240/  5/  7 1012.3F
LEWISETTA VA     0200   77 82  280/  4/  6 1013.6R
RAPPAHANNOCK LGT 0200          270/ 16/ 17 1014.3S
STINGRAY PT      0300   78 80  280/  8/  8 1014.3R
YORK RVR RNG VA  0200   77     280/  9/ 10 1013.7R
YORKTOWN VA      0200   74 81  220/  4/  5 1013.9R
JAMESTOWN VA     0300   75 81  210/  6/  8   N/A
DOMINION TERM VA 0200   75     270/ 13/ 15 1014.5R
KIPTOPEKE VA     0200      80  270/  5/  6   N/A
CHES BAY BRIDGE  0200   75 80  190/ 11/ 13 1013.4R
CAPE HENRY VA    0200   74     210/  7/ 10   N/A
CHESAPEAKE LGHT  0200   77     230/  7/  8 1014.5S
WILLOUBY STN VA  0200   75     290/ 13/ 17 1015.4R
CAPE HENRY BUOY  0228      80                N/A     2/13
1ST LANDING BUOY 0300      79              1014.0R   1/ 3
CAPE CHARLES BUO 0226      79                N/A     2/13   2/13
OFFSHORE WE BUOY 0211      80                N/A     2/ 9   2/ 9
64NM E OF VA BCH 0250   79 79  270/  8/ 10 1013.4F   2/13   2/13
DUCK PIER NC     0200   79 79  270/  5/  6 1013.5R
44100 DUCK FRF   0224      80                N/A     1/13
44056 DUCK FRF   0211      81                N/A     1/13
OREGON INLET NC  0200   81 83  210/  7/  8 1014.3R
HATTERAS NC      0200   80 83  230/  4/  4 1014.6R
DIAMOND SHLS NC  0250   82 86  210/  2/  4 1014.8F   2/12   2/12
CAPE LOOKOUT NC  0300   80     230/  5/  6 1014.9R
$$



USA.gov is the U.S. government's official web portal to all federal, state and local government web resources and services.